This is the latest recevied weather packets stored in our database for station/object EA4GRN-10. If no packets are shown the sender has not sent any weather packets the latest 10 day(s).
| Time | Temp. | Humidity | Pressure | Rain* | Wind** | Luminosity | Snow |
|---|---|---|---|---|---|---|---|
| 1787412628 | 30.56° C | 41% | 1025.8 hPa | - | - | - | - |
| 1787411728 | 30.56° C | 41% | 1025.7 hPa | - | - | - | - |
| 1787410828 | 30.56° C | 41% | 1025.9 hPa | - | - | - | - |
| 1787409928 | 30.56° C | 42% | 1026 hPa | - | - | - | - |
| 1787409028 | 30.56° C | 43% | 1026.1 hPa | - | - | - | - |
| 1787408127 | 30.56° C | 42% | 1026.2 hPa | - | - | - | - |
| 1787407227 | 30.56° C | 41% | 1026.3 hPa | - | - | - | - |
| 1787406327 | 30.56° C | 41% | 1026.4 hPa | - | - | - | - |
| 1787405427 | 30.56° C | 43% | 1026.5 hPa | - | - | - | - |
| 1787404527 | 31.11° C | 43% | 1026.7 hPa | - | - | - | - |
| 1787403626 | 31.11° C | 43% | 1026.6 hPa | - | - | - | - |
| 1787402726 | 31.67° C | 43% | 1026.7 hPa | - | - | - | - |
| 1787401826 | 32.22° C | 46% | 1026.8 hPa | - | - | - | - |
| 1787400926 | 32.22° C | 43% | 1026.9 hPa | - | - | - | - |
| 1787400026 | 32.22° C | 45% | 1027 hPa | - | - | - | - |
| 1787399126 | 32.22° C | 44% | 1027.1 hPa | - | - | - | - |
| 1787398225 | 32.22° C | 45% | 1027.4 hPa | - | - | - | - |
| 1787397325 | 32.22° C | 45% | 1027.6 hPa | - | - | - | - |
| 1787396425 | 32.22° C | 45% | 1027.7 hPa | - | - | - | - |
| 1787395525 | 32.22° C | 47% | 1028 hPa | - | - | - | - |
| 1787394625 | 32.22° C | 46% | 1028.1 hPa | - | - | - | - |
| 1787393723 | 32.22° C | 47% | 1028.3 hPa | - | - | - | - |
| 1787392823 | 31.67° C | 48% | 1028.3 hPa | - | - | - | - |
| 1787391928 | 31.67° C | 49% | 1028.4 hPa | - | - | - | - |
| 1787391027 | 31.67° C | 49% | 1028.3 hPa | - | - | - | - |
* Rain since midnight (hover to see other rain measurements)
** Current wind speed in m/s (hover to see current wind gust speed)